Weather History for KBFW - February, 2013

Change the Weather History Date:

Monday, February 18, 2013

  Actual Average Record
Temperature  
Mean Temperature 20 °F -  
Max Temperature 30 °F 26 °F 53 °F (1997)
Min Temperature 8 °F 4 °F -23 °F (2006)
Degree Days  
Heating Degree Days 45    
Moisture  
Dew Point 13 °F    
Average Humidity 67    
Maximum Humidity 80    
Minimum Humidity 57    
Precipitation  
Precipitation 0.00 in - - ()
Sea Level Pressure  
Sea Level Pressure 29.54 in    
Wind  
Wind Speed 4 mph (North)    
Max Wind Speed 14 mph    
Max Gust Speed 29 mph    
Visibility 9 miles    
Events Snow    
Averages and records for this station are not official NWS values.
T = Trace of Precipitation, MM = Missing Value Source: NWS Daily Summary

Daily Weather History Graph

Daily Weather History Graph

Search for Another Location

Airport or City:

Trip Planner

Search our weather history database for the weather conditions in past years. The results will help you decide how hot, cold, wet, or windy it might be!

Date:

Astronomy

Feb. 18, 2013 Rise Set
Actual Time 7:05 AM CST 5:34 PM CST
Civil Twilight 6:33 AM CST 6:06 PM CST
Nautical Twilight 5:58 AM CST 6:41 PM CST
Astronomical Twilight 5:22 AM CST 7:17 PM CST
Moon 11:09 AM CST (2/18) 1:56 AM CST (2/18)
Length of Visible Light 11h 32m
Length of Day
10h 29m
First Quarter, 58% of the Moon is Illuminated
Feb 18
First Quarter
Feb 25
Full
Mar 4
Last Quarter
Mar 11
New
Mar 19
First Quarter

Hourly Weather History & Observations

Time (CST) Temp. Windchill Dew Point Humidity Pressure Visibility Wind Dir Wind Speed Gust Speed Precip Events Conditions
12:13 AM 23.0 °F 13.1 °F 10.4 °F 59% 29.67 in 10.0 mi South 9.2 mph - N/A   Scattered Clouds
12:33 AM 23.0 °F 11.1 °F 10.4 °F 59% 29.66 in 10.0 mi South 12.7 mph 18.4 mph N/A   Scattered Clouds
12:53 AM 21.2 °F 14.9 °F 10.4 °F 63% 29.65 in 10.0 mi South 4.6 mph - N/A   Scattered Clouds
1:13 AM 21.2 °F 14.9 °F 10.4 °F 63% 29.64 in 10.0 mi South 4.6 mph - N/A   Scattered Clouds
1:33 AM 21.2 °F 14.9 °F 10.4 °F 63% 29.64 in 10.0 mi South 4.6 mph - N/A   Scattered Clouds
1:53 AM 21.2 °F 13.6 °F 10.4 °F 63% 29.63 in 10.0 mi South 5.8 mph - N/A   Scattered Clouds
2:33 AM 21.2 °F 14.9 °F 10.4 °F 63% 29.61 in 10.0 mi South 4.6 mph - N/A   Scattered Clouds
2:53 AM 21.2 °F - 10.4 °F 63% 29.60 in 10.0 mi Calm Calm - N/A   Clear
3:13 AM 21.2 °F 16.4 °F 12.2 °F 68% 29.60 in 10.0 mi SSE 3.5 mph - N/A   Scattered Clouds
3:33 AM 21.2 °F - 12.2 °F 68% 29.59 in 10.0 mi Calm Calm - N/A   Scattered Clouds
3:53 AM 21.2 °F - 12.2 °F 68% 29.58 in 10.0 mi Calm Calm - N/A   Scattered Clouds
4:13 AM 19.4 °F - 10.4 °F 68% 29.58 in 10.0 mi Calm Calm - N/A   Scattered Clouds
4:33 AM 19.4 °F - 10.4 °F 68% 29.57 in 10.0 mi Calm Calm - N/A   Clear
4:53 AM 19.4 °F - 12.2 °F 74% 29.56 in 10.0 mi Calm Calm - N/A   Clear
5:13 AM 19.4 °F - 12.2 °F 74% 29.56 in 10.0 mi Calm Calm - N/A   Clear
5:33 AM 21.2 °F - 12.2 °F 68% 29.56 in 10.0 mi Calm Calm - N/A   Clear
5:53 AM 21.2 °F 16.4 °F 12.2 °F 68% 29.54 in 10.0 mi East 3.5 mph - N/A   Clear
6:13 AM 21.2 °F 16.4 °F 14.0 °F 74% 29.54 in 10.0 mi East 3.5 mph - N/A   Clear
6:33 AM 23.0 °F - 14.0 °F 68% 29.54 in 10.0 mi Calm Calm - N/A   Clear
6:53 AM 23.0 °F 18.4 °F 14.0 °F 68% 29.53 in 10.0 mi East 3.5 mph - N/A   Clear
7:13 AM 23.0 °F 17.0 °F 14.0 °F 68% 29.52 in 10.0 mi East 4.6 mph - N/A   Clear
7:33 AM 23.0 °F - 14.0 °F 68% 29.53 in 10.0 mi Calm Calm - N/A   Clear
8:13 AM 24.8 °F 20.5 °F 15.8 °F 69% 29.52 in 10.0 mi ESE 3.5 mph - N/A   Clear
8:33 AM 24.8 °F 19.1 °F 15.8 °F 69% 29.51 in 10.0 mi East 4.6 mph - N/A   Clear
8:53 AM 24.8 °F 20.5 °F 15.8 °F 69% 29.50 in 10.0 mi East 3.5 mph - N/A   Clear
9:13 AM 24.8 °F 19.1 °F 15.8 °F 69% 29.50 in 10.0 mi East 4.6 mph - N/A   Clear
9:33 AM 24.8 °F - 15.8 °F 69% 29.50 in 10.0 mi Calm Calm - N/A   Scattered Clouds
9:53 AM 24.8 °F 20.5 °F 15.8 °F 69% 29.50 in 10.0 mi SE 3.5 mph - N/A   Scattered Clouds
10:13 AM 26.6 °F 21.2 °F 15.8 °F 64% 29.50 in 10.0 mi ESE 4.6 mph - N/A   Clear
10:33 AM 26.6 °F - 15.8 °F 64% 29.50 in 10.0 mi Calm Calm - N/A   Clear
10:53 AM 26.6 °F - 15.8 °F 64% 29.49 in 10.0 mi Calm Calm - N/A   Clear
11:13 AM 28.4 °F - 17.6 °F 64% 29.49 in 10.0 mi Calm Calm - N/A   Clear
11:33 AM 28.4 °F - 17.6 °F 64% 29.48 in 10.0 mi Calm Calm - N/A   Clear
11:53 AM 28.4 °F - 17.6 °F 64% 29.48 in 10.0 mi Calm Calm - N/A   Clear
12:13 PM 28.4 °F - 17.6 °F 64% 29.47 in 10.0 mi Calm Calm - N/A   Clear
12:33 PM 30.2 °F - 17.6 °F 60% 29.47 in 10.0 mi Calm Calm - N/A   Clear
12:53 PM 28.4 °F - 17.6 °F 64% 29.47 in 10.0 mi Calm Calm - N/A   Clear
1:13 PM 28.4 °F - 17.6 °F 64% 29.47 in 10.0 mi Calm Calm - N/A   Clear
1:33 PM 28.4 °F - 17.6 °F 64% 29.46 in 10.0 mi Calm Calm - N/A   Clear
1:53 PM 28.4 °F - 17.6 °F 64% 29.47 in 10.0 mi Calm Calm - N/A   Clear
2:13 PM 28.4 °F 24.6 °F 17.6 °F 64% 29.47 in 10.0 mi NNW 3.5 mph - N/A   Clear
2:33 PM 28.4 °F 24.6 °F 17.6 °F 64% 29.47 in 7.0 mi NNW 3.5 mph - N/A   Scattered Clouds
2:53 PM 28.4 °F 24.6 °F 19.4 °F 69% 29.48 in 7.0 mi NNW 3.5 mph - N/A   Scattered Clouds
3:13 PM 26.6 °F 22.6 °F 19.4 °F 74% 29.48 in 7.0 mi NNW 3.5 mph - N/A   Scattered Clouds
3:33 PM 26.6 °F 21.2 °F 19.4 °F 74% 29.49 in 4.0 mi NNW 4.6 mph - N/A   Haze
3:53 PM 26.6 °F 22.6 °F 19.4 °F 74% 29.49 in 2.5 mi NNW 3.5 mph - N/A   Haze
4:13 PM 26.6 °F 22.6 °F 19.4 °F 74% 29.50 in 5.0 mi NW 3.5 mph - N/A   Light Freezing Rain
4:33 PM 26.6 °F 22.6 °F 19.4 °F 74% 29.51 in 5.0 mi North 3.5 mph - N/A Snow Light Snow
4:53 PM 26.6 °F 22.6 °F 19.4 °F 74% 29.51 in 3.0 mi NNW 3.5 mph - N/A Snow Light Snow
5:13 PM 24.8 °F 20.5 °F 19.4 °F 80% 29.52 in 2.5 mi NNW 3.5 mph - N/A Snow Light Snow
5:33 PM 24.8 °F 19.1 °F 19.4 °F 80% 29.52 in 7.0 mi NNW 4.6 mph - N/A Snow Light Snow
5:53 PM 24.8 °F - 19.4 °F 80% 29.53 in 7.0 mi Calm Calm - N/A Snow Light Snow
6:13 PM 24.8 °F 20.5 °F 19.4 °F 80% 29.53 in 7.0 mi NNW 3.5 mph - N/A Snow Light Snow
6:33 PM 24.8 °F 17.9 °F 17.6 °F 74% 29.54 in 7.0 mi NNW 5.8 mph - N/A Snow Light Snow
7:13 PM 24.8 °F 20.5 °F 17.6 °F 74% 29.53 in 3.0 mi NNW 3.5 mph - N/A Snow Light Snow
7:33 PM 24.8 °F 19.1 °F 17.6 °F 74% 29.54 in 3.0 mi NNW 4.6 mph - N/A Snow Light Snow
7:53 PM 23.0 °F 14.7 °F 15.8 °F 74% 29.54 in 3.0 mi NNW 6.9 mph 18.4 mph N/A Snow Light Snow
8:13 PM 21.2 °F 10.9 °F 12.2 °F 68% 29.55 in 7.0 mi NNW 9.2 mph 18.4 mph N/A Snow Light Snow
8:33 PM 19.4 °F 7.2 °F 8.6 °F 63% 29.56 in 10.0 mi NNW 11.5 mph 24.2 mph N/A Snow Light Snow
8:53 PM 17.6 °F 3.7 °F 6.8 °F 63% 29.57 in 10.0 mi North 13.8 mph 25.3 mph N/A Snow Light Snow
9:13 PM 15.8 °F 5.1 °F 6.8 °F 68% 29.58 in 10.0 mi NNW 8.1 mph 21.9 mph N/A Snow Light Snow
9:33 PM 15.8 °F 2.1 °F 3.2 °F 58% 29.59 in 7.0 mi NNW 12.7 mph 20.7 mph N/A Snow Light Snow
9:53 PM 14.0 °F 0.5 °F 3.2 °F 62% 29.59 in 7.0 mi North 11.5 mph 23.0 mph N/A Snow Light Snow
10:13 PM 14.0 °F 1.2 °F 3.2 °F 62% 29.59 in 7.0 mi North 10.4 mph 25.3 mph N/A Snow Light Snow
10:33 PM 12.2 °F -0.2 °F 1.4 °F 62% 29.59 in 7.0 mi NNW 9.2 mph 28.8 mph N/A Snow Light Snow
10:53 PM 12.2 °F -2.5 °F -0.4 °F 57% 29.61 in 10.0 mi NNW 12.7 mph 24.2 mph N/A   Overcast
11:13 PM 10.4 °F -3.3 °F -0.4 °F 62% 29.61 in 7.0 mi NNW 10.4 mph 23.0 mph N/A Snow Light Snow
11:33 PM 10.4 °F -2.4 °F -2.2 °F 57% 29.61 in 10.0 mi North 9.2 mph 23.0 mph N/A   Overcast
11:53 PM 8.6 °F 0.1 °F -2.2 °F 62% 29.62 in 10.0 mi NNW 4.6 mph 17.3 mph N/A   Overcast